Location: Kershaw
(34.5481°N, 80.5823°W)
Time: 16:41:12
(UTC+00:00)

Courier 1B Rocket - Pass Details

Date: 05 October 2022
Orbit: 920 x 1202 km, 28.2° (Epoch: 08 December)

Event Time Altitude Azimuth Distance (km) Brightness Sun altitude
Rises 22:35:54 0° 235° (SW) 3,916 9.5 4.3°
Reaches altitude 10° 22:39:00 10° 226° (SW) 2,914 8.5 3.6°
Maximum altitude 22:45:17 35° 164° (SSE) 1,609 6.2 2.4°
Drops below altitude 10° 22:51:12 10° 101° (E) 2,734 6.8 1.1°
Sets 22:54:00 0° 92° (E) 3,646 7.3 0.6°
